296P/Garradd (2014)

Japanese version
Home page
Updated on May 8, 2015

---------------------------------------------------------------------

* Profile

Designation 296P/2014 A1
Recovery Date January 6, 2014
Magnitude 18.8 mag
Recoverer Martin Masek (Liberec, Czech Republic)

* Pictures

* Orbital Elements

Epoch 2014 Mar. 4.0 TT = JDT 2456720.5
T 2014 Mar. 1.28711 TT                                  MPCW
q   1.8307081            (2000.0)            P               Q
n   0.15036221     Peri.  350.03089     -0.26415411     +0.86664434
a   3.5024901      Node   263.67692     -0.85297965     -0.41474803
e   0.4773124      Incl.   25.20460     -0.45016476     +0.27732950
P   6.55
From 209 observations 2001 June 30-2014 Oct. 2, mean residual 0".6.

* Magnitudes Graph

        m1 = 14.0 + 5 log d + 10.0 log r

	Component B:
        m1 = 16.0 + 5 log d + 10.0 log r

---------------------------------------------------------------------

The orbital elements are published on M.P.E.C. 2015-A10.
The magnitudes graphs are made with Comet for Windows.

---------------------------------------------------------------------

Copyright(C) Seiichi Yoshida (comet@aerith.net). All rights reserved.